Regional Weather Roundup
Issued by NWS Newport/Morehead, NC

Current Version | Previous Version | Graphics & Text | Print | Product List | Glossary Off
Versions: 1 2 3 4 5 6 7 8 9 10 11 12 13 14 15 16 17 18 19 20 21 22 23 24 25 26 27 28 29 30 31 32 33 34 35 36 37 38 39 40 41 42 43 44 45 46 47 48 49 50

000
ASUS42 KMHX 162022
RWRMHX
WEATHER ROUNDUP FOR EASTERN NORTH CAROLINA
NATIONAL WEATHER SERVICE NEWPORT/MOREHEAD CITY NC
400 PM EDT TUE SEP 16 2014

NOTE: "FAIR" INDICATES FEW OR NO CLOUDS BELOW 12,000 FEET
WITH NO SIGNIFICANT WEATHER AND/OR OBSTRUCTIONS TO VISIBILITY

NCZ015>017-031-032-045>047-102-103-162100-
NORTH COAST

CITY           SKY/WX    TMP DP  RH WIND       PRES   REMARKS
EDENTON        SUNNY     82  64  54 NW6       29.96S
ELIZABETH CITY SUNNY     83  65  54 N7        29.96S
KITTY HAWK     CLEAR     78  66  66 N6        29.95S
MANTEO         SUNNY     79  65  61 N8        29.96S

$$

NCZ045>047-081-094-103-104-162100-
CENTRAL COAST

CITY           SKY/WX    TMP DP  RH WIND       PRES   REMARKS
FRISCO         SUNNY     79  69  71 SW5       29.96F
SWANQUARTER      N/A     82 N/A N/A S7        29.91S

$$

NCZ095-097-098-100-101-162100-
SOUTHERN COAST

CITY           SKY/WX    TMP DP  RH WIND       PRES   REMARKS
BEAUFORT       SUNNY     81  72  74 SW9       29.96F
CEDAR ISLAND     N/A     79 N/A N/A SE9       30.00S
JACKSONVILLE   MOSUNNY   82  71  69 VRB3      29.95F
NEWPORT        NOT AVBL
PINEY ISLAND   MOCLDY    83  70  64 E7        29.95F
WILMINGTON     MOSUNNY   82  72  71 VRB6      29.96F


$$

NCZ011>013-027>030-043-044-078>080-089-090>093-098-162100-
COASTAL PLAIN

CITY           SKY/WX    TMP DP  RH WIND       PRES   REMARKS
AHOSKIE        PTSUNNY   78  67  67 CALM      29.97F
CLINTON        MOSUNNY   83  68  60 CALM      29.97F
ELIZABETHTOWN  MOSUNNY   82  68  62 CALM      29.96F
GOLDSBORO      MOSUNNY   84  68  58 CALM      29.95F
GREENVILLE     MOSUNNY   84  66  54 N5        29.98F
HAVELOCK       MOSUNNY   85  68  56 CALM      29.96F
KENANSVILLE    SUNNY     82  64  53 N3        29.98S
KINSTON        MOSUNNY   82  66  57 N6        29.97F
NEW BERN       SUNNY     88  66  48 W6        29.96F
RICHLANDS      SUNNY     84  66  54 CALM      29.96S
ROANOKE RAPIDS NOT AVBL
ROCKY MOUNT    CLOUDY    81  63  54 NW3       29.97F
WASHINGTON     MOSUNNY   83  65  55 NW6       29.96S
WHITEVILLE     MOSUNNY   84  67  56 N5        29.95F

$$

AMZ130-135-150-152-154-156-158-170-250-252-270-ANZ085-086-088-633-658-670-162100-
MARINE OBSERVATIONS

STATION/POSITION TIME  TEMP    WIND        PRES    WAVE   SWELL
                       AIR SEA DIR/SP/G            HT/PER HT/PER
                 (UTC) (F)     (DEG/KT/KT) (MB)    (FT/S) (FT/S)
CHESAPEAKE LIGHT 2000   74     350/  8/  8 1015.6
BUOY 44014       2000   74 79  330/ 12/ 14 1014.1    2/12   2/12
DUCK             2000   75 76   20/  9/ 10 1013.9
2E DUCK          1900                        N/A     1/13   2/13
OREGON INLET     2000   78 76  190/  5/  6 1014.4
BUOY 44095       2000      79                N/A     2/13   2/13
20E OREGON INLET NOT AVBL
HATTERAS CG      2000   80 78  220/  5/  6 1014.9
DIAMOND BUOY     2000   77     280/  4/  6 1014.7    2/ 8   2/ 8
CAPE LOOKOUT     2000   78     180/  8/  8 1014.5
BEAUFORT LAB     2000   79 79  200/  6/  8 1013.9
30 SE NEW RIVER  2000   78 82  120/  6/  8 1015.0    2/13   2/13
5 SE WRIGHTSVILL 2000   76 82  140/  8/ 10   N/A
BUOY 41002       1946   79 83  250/  6/  8 1015.3    3/13   3/13
BUOY 41004       2000   80 84  330/  4/  4 1014.5    1/ 7   2/ 7

$$


USA.gov is the U.S. government's official web portal to all federal, state and local government web resources and services.